[[{"header":{"parameterUnit":"m.s-1","parameterCategory":1,"la1":30.2991,"la2":30.254,"lo1":-89.0895,"lo2":-89.0444,"dy":0.0017,"dx":0.0017,"nx":28,"ny":28,"refTime":"2025-01-09T09:00:00:Z","depth":0,"parameterNumber":2,"parameterNumberName":"U-component_of_WINDS"},"data":[0,0,0,0,0,0,0,0,0,0,0,0,0,0,0,0,0,0,0,0,0,0,0,0,0,0,0,0,0,0,0,0,0,0,0,0,0,0,0,0,0,0,0,0,0,0,0,0,0,0,0,0,0,0,0,0,0,0,-1.5518,-1.5518,0,-1.5563,-1.5563,-1.5564,-1.5493,-1.5491,-1.5488,-1.5486,-1.5535,-1.5538,-1.5542,0,0,0,0,0,0,0,0,0,0,0,0,0,-1.5372,-1.5375,-1.5518,-1.5518,-1.5519,-1.5563,-1.5563,-1.5564,-1.5494,-1.5491,-1.5488,-1.5485,-1.5534,-1.5538,-1.5542,0,0,0,0,0,0,0,0,0,0,0,0,0,-1.5428,-1.5376,-1.5518,-1.5489,-1.5487,-1.5563,-1.5563,-1.5564,-1.5494,-1.5491,-1.5487,-1.5483,-1.5532,-1.5537,-1.5543,-1.5649,0,0,-1.5559,-1.5561,0,0,0,0,0,0,0,0,-1.5425,-1.5433,-1.5493,-1.5491,-1.5489,-1.5519,-1.553,-1.5593,-1.5495,-1.5492,-1.5486,-1.5482,-1.5532,-1.5538,-1.5554,-1.5652,-1.5654,-1.556,-1.5563,-1.5565,-1.5567,0,0,0,0,0,0,0,-1.5421,-1.5431,-1.5536,-1.5494,-1.5491,-1.5474,-1.5478,-1.5541,-1.5532,-1.5492,-1.5487,-1.5493,-1.5531,-1.5549,-1.5555,-1.5654,-1.5559,-1.5564,-1.5567,-1.557,-1.5841,-1.5845,0,0,0,0,0,0,-1.542,-1.5428,-1.5534,-1.5537,-1.5447,-1.548,-1.5484,-1.5513,-1.5531,-1.553,-1.5496,-1.5489,-1.5542,-1.5549,-1.5556,-1.5683,-1.5565,-1.557,-1.5573,-1.5837,-1.5842,-1.5846,0,0,0,0,0,0,-1.5417,-1.543,-1.5532,-1.5481,-1.5493,-1.5486,-1.5519,-1.5516,-1.5534,-1.5534,-1.5533,-1.5516,-1.5539,-1.5549,-1.5626,-1.5683,-1.5572,-1.5577,-1.5832,-1.5838,-1.5844,-1.5936,0,0,0,0,0,0,-1.5414,-1.543,-1.547,-1.5483,-1.5496,-1.5602,-1.5522,-1.5519,-1.5543,-1.5535,-1.5553,-1.5553,-1.5537,-1.5619,-1.5632,-1.5689,-1.5582,-1.5827,-1.5835,-1.5842,-1.5928,-1.5945,-1.5959,0,0,0,0,0,-1.5409,-1.5495,-1.5473,-1.5486,-1.5546,-1.5605,-1.5613,-1.5593,-1.5548,-1.5589,-1.5589,-1.5552,-1.5674,-1.5627,-1.5641,-1.5701,-1.5823,-1.5833,-1.5841,-1.5921,-1.5941,-1.5958,0,0,0,0,0,0,-1.5491,-1.5496,-1.5472,-1.5565,-1.5585,-1.5593,-1.5644,-1.5615,-1.5649,-1.564,-1.5613,-1.5618,-1.5702,-1.5708,-1.5656,-1.5804,-1.5742,-1.5754,-1.5798,-1.5817,-1.5832,-1.5829,-1.5586,0,0,0,0,0,-1.552,-1.5567,-1.5569,-1.5651,-1.5662,-1.5652,-1.5677,-1.5659,-1.5679,-1.5688,-1.5693,-1.5715,-1.5758,-1.5787,-1.5827,-1.5928,-1.5931,-1.5975,-1.5991,-1.6003,-1.6015,-1.6068,-1.6088,-1.5875,-1.5875,-1.5875,0,0,-1.5581,-1.5589,-1.5621,-1.5668,-1.5681,-1.5731,-1.5659,-1.5715,-1.5752,-1.5696,-1.577,-1.5775,-1.5797,-1.5887,-1.5927,-1.5895,-1.6074,-1.6015,-1.6025,-1.603,-1.608,-1.61,-1.6118,-1.5882,-1.588,-1.5879,0,0,-1.5717,-1.5728,-1.5797,-1.5812,-1.5832,-1.5824,-1.5841,-1.5853,-1.5854,-1.5927,-1.5886,-1.5929,-1.6004,-1.6022,-1.6041,-1.6181,-1.6149,-1.6194,-1.6275,-1.6328,-1.6345,-1.636,-1.6411,-1.6429,-1.6205,-1.6206,-1.6206,0,-1.579,-1.5863,-1.5837,-1.5895,-1.5917,-1.5867,-1.5937,-1.5953,-1.5986,-1.6003,-1.5966,-1.6059,-1.607,-1.6163,-1.6197,-1.6214,-1.6232,-1.6194,-1.6344,-1.6359,-1.6372,-1.6421,-1.644,-1.6211,-1.6211,-1.621,-1.6209,0,-1.5952,-1.6003,-1.6056,-1.6089,-1.6116,-1.6181,-1.6165,-1.6196,-1.6174,-1.617,-1.6245,-1.6256,-1.6298,-1.6318,-1.6298,-1.6408,-1.6388,-1.6348,-1.6285,-1.6399,-1.6444,-1.6462,-1.6219,-1.6217,-1.6215,-1.6214,0,0,-1.6145,-1.616,-1.618,-1.6194,-1.6212,-1.6251,-1.6312,-1.6351,-1.6379,-1.6403,-1.6454,-1.6517,-1.6481,-1.6502,-1.6483,-1.6529,-1.6641,-1.6484,-1.6484,-1.6514,-1.6763,-1.6794,-1.6815,-1.6618,-1.6621,-1.6624,-1.6761,0,-1.6281,-1.6387,-1.6364,-1.6468,-1.6515,-1.6467,-1.652,-1.6537,-1.6534,-1.6574,-1.657,-1.6616,-1.6563,-1.6576,-1.6619,-1.6618,-1.669,-1.6607,-1.6667,-1.6669,-1.6665,-1.6839,-1.6872,-1.7001,-1.6778,-1.6781,-1.6783,0,-1.6455,-1.6485,-1.6593,-1.6603,-1.6622,-1.667,-1.6704,-1.6742,-1.676,-1.6754,-1.6777,-1.6749,-1.681,-1.6744,-1.6828,-1.6772,-1.6794,-1.6797,-1.6801,-1.6808,-1.6735,-1.6852,-1.7042,-1.7062,-1.6811,-1.6809,-1.6807,0,-1.6586,-1.6653,-1.6726,-1.6739,-1.6752,-1.6788,-1.6795,-1.6809,-1.6833,-1.6862,-1.6878,-1.6914,-1.6934,-1.6962,-1.6945,-1.6898,-1.7032,-1.6964,-1.703,-1.7031,-1.7063,-1.7061,-1.7261,-1.7074,-1.7074,-1.7073,-1.7073,0,-1.6743,-1.6811,-1.6785,-1.6831,-1.6906,-1.6879,-1.6954,-1.6955,-1.6968,-1.7013,-1.6973,-1.7016,-1.6989,-1.703,-1.7017,-1.7088,-1.7097,-1.7095,-1.7091,-1.71,-1.7101,-1.7116,-1.7107,-1.7078,-1.7077,-1.7076,-1.7075,0,-1.6903,-1.6888,-1.6965,-1.697,-1.6973,-1.7029,-1.7033,-1.7075,-1.7068,-1.7125,-1.7137,-1.7127,-1.7172,-1.7157,-1.7206,-1.7197,-1.7289,-1.7272,-1.7283,-1.728,-1.7347,-1.7341,-1.7565,-1.7593,-1.7386,-1.7388,-1.739,0,-1.7005,-1.7057,-1.7066,-1.7093,-1.7103,-1.7147,-1.7171,-1.7145,-1.7172,-1.7195,-1.7235,-1.7277,-1.731,-1.7385,-1.7382,-1.7419,-1.7405,-1.748,-1.741,-1.7417,-1.7407,-1.7405,-1.7411,-1.7495,-1.7497,-1.7499,-1.7501,0,-1.7188,-1.7177,-1.7213,-1.7247,-1.7277,-1.7302,-1.7324,-1.7349,-1.7324,-1.7356,-1.7402,-1.7427,-1.7476,-1.7519,-1.7552,-1.7559,-1.7527,-1.7522,-1.754,-1.7551,-1.7555,-1.7555,-1.7323,-1.7518,-1.7516,-1.7515,-1.7514,-1.7514,-1.7323,-1.7366,-1.738,-1.7421,-1.7434,-1.7455,-1.7495,-1.7492,-1.753,-1.7568,-1.755,-1.7603,-1.7618,-1.7659,-1.7671,-1.7712,-1.7683,-1.7708,-1.7715,-1.7722,-1.7731,-1.7547,-1.7718,-1.7717,-1.7717,-1.7716,-1.7716,0,-1.7505,-1.751,-1.7548,-1.758,-1.7612,-1.7576,-1.7598,-1.7628,-1.7675,-1.7691,-1.7724,-1.7776,-1.7816,-1.7815,-1.7853,-1.7886,-1.7872,-1.7897,-1.7895,-1.7898,-1.7754,-1.7736,-1.7908,-1.7908,-1.7908,-1.7908,-1.7908,-1.7907,-1.7603,-1.7675,-1.7666,-1.7743,-1.7748,-1.7799,-1.7815,-1.7834,-1.7847,-1.7907,-1.794,-1.7938,-1.7948,-1.7985,-1.802,-1.8019,-1.8035,-1.8066,-1.806,-1.7927,-1.7908,-1.789,-1.7872,-1.807,-1.807,-1.8199,-1.8201,-1.8201]},{"header":{"parameterUnit":"m.s-1","parameterCategory":1,"la1":30.2991,"la2":30.254,"lo1":-89.0895,"lo2":-89.0444,"dy":0.0017,"dx":0.0017,"nx":28,"ny":28,"refTime":"2025-01-09T09:00:00:Z","depth":0,"parameterNumber":3,"parameterNumberName":"V-component_of_WINDS"},"data":[0,0,0,0,0,0,0,0,0,0,0,0,0,0,0,0,0,0,0,0,0,0,0,0,0,0,0,0,0,0,0,0,0,0,0,0,0,0,0,0,0,0,0,0,0,0,0,0,0,0,0,0,0,0,0,0,0,0,-6.0897,-6.0898,0,-6.1,-6.1001,-6.1002,-6.0904,-6.09,-6.0896,-6.0893,-6.0994,-6.1,-6.1006,0,0,0,0,0,0,0,0,0,0,0,0,0,-6.0608,-6.0614,-6.0896,-6.0898,-6.0899,-6.1,-6.1001,-6.1003,-6.0905,-6.09,-6.0895,-6.0891,-6.0992,-6.0999,-6.1007,0,0,0,0,0,0,0,0,0,0,0,0,0,-6.0725,-6.0616,-6.0896,-6.0862,-6.086,-6.1,-6.1001,-6.1003,-6.0906,-6.09,-6.0894,-6.0889,-6.0989,-6.0998,-6.1008,-6.1184,0,0,-6.1037,-6.1041,0,0,0,0,0,0,0,0,-6.0718,-6.0735,-6.0866,-6.0865,-6.0863,-6.0933,-6.0937,-6.1063,-6.0907,-6.0888,-6.0892,-6.0886,-6.0978,-6.0988,-6.102,-6.1188,-6.1193,-6.1038,-6.1043,-6.1047,-6.105,0,0,0,0,0,0,0,-6.071,-6.073,-6.0937,-6.0868,-6.0866,-6.084,-6.085,-6.096,-6.0965,-6.089,-6.0883,-6.0897,-6.0976,-6.1011,-6.1022,-6.1194,-6.1037,-6.1046,-6.1052,-6.1055,-6.1511,-6.1517,0,0,0,0,0,0,-6.0707,-6.0724,-6.0934,-6.094,-6.0775,-6.085,-6.0862,-6.0917,-6.0963,-6.0965,-6.0902,-6.0892,-6.0998,-6.1011,-6.1025,-6.1233,-6.1047,-6.1056,-6.1062,-6.1504,-6.1512,-6.1519,0,0,0,0,0,0,-6.0701,-6.0726,-6.093,-6.0831,-6.0854,-6.0862,-6.0924,-6.0922,-6.0957,-6.0972,-6.0972,-6.0937,-6.0994,-6.1012,-6.1145,-6.1236,-6.1061,-6.1069,-6.1497,-6.1507,-6.1515,-6.1653,0,0,0,0,0,0,-6.0693,-6.0725,-6.0793,-6.0833,-6.086,-6.105,-6.093,-6.0928,-6.0974,-6.0962,-6.1006,-6.1007,-6.0991,-6.1131,-6.1155,-6.1246,-6.1077,-6.1489,-6.1501,-6.1512,-6.164,-6.1666,-6.1688,0,0,0,0,0,-6.0683,-6.0827,-6.0797,-6.0823,-6.0946,-6.1056,-6.1071,-6.105,-6.0982,-6.105,-6.1059,-6.1006,-6.1222,-6.1146,-6.1171,-6.1266,-6.1483,-6.1498,-6.1511,-6.1629,-6.1661,-6.1687,0,0,0,0,0,0,-6.0796,-6.0831,-6.0799,-6.096,-6.1006,-6.1039,-6.1124,-6.1084,-6.1149,-6.1135,-6.1105,-6.1116,-6.1257,-6.1275,-6.1189,-6.1438,-6.1341,-6.1361,-6.1422,-6.1452,-6.1475,-6.1468,-6.1085,0,0,0,0,0,-6.084,-6.0928,-6.0953,-6.1093,-6.1118,-6.1117,-6.1164,-6.1144,-6.119,-6.1208,-6.1227,-6.1272,-6.135,-6.1402,-6.1474,-6.1642,-6.1649,-6.172,-6.1743,-6.1763,-6.1781,-6.1869,-6.1901,-6.1566,-6.1566,-6.1566,0,0,-6.0931,-6.0961,-6.1018,-6.1116,-6.1149,-6.1239,-6.1134,-6.1234,-6.1299,-6.1222,-6.135,-6.1366,-6.1413,-6.1565,-6.1632,-6.1584,-6.1875,-6.1781,-6.1797,-6.1804,-6.1888,-6.1919,-6.1947,-6.1576,-6.1574,-6.1573,0,0,-6.1143,-6.1176,-6.1295,-6.1331,-6.1383,-6.1381,-6.141,-6.145,-6.1458,-6.1585,-6.1529,-6.1606,-6.1741,-6.1777,-6.1813,-6.2038,-6.1991,-6.2062,-6.2187,-6.2274,-6.23,-6.2324,-6.2403,-6.2432,-6.208,-6.208,-6.2081,0,-6.125,-6.1385,-6.1361,-6.1466,-6.151,-6.1446,-6.1565,-6.16,-6.1673,-6.1704,-6.1649,-6.1817,-6.1844,-6.2002,-6.2057,-6.2089,-6.212,-6.2058,-6.2299,-6.2322,-6.2343,-6.2419,-6.2449,-6.2089,-6.2088,-6.2087,-6.2086,0,-6.1513,-6.1607,-6.1697,-6.177,-6.1824,-6.1936,-6.1928,-6.1985,-6.196,-6.1964,-6.2094,-6.2125,-6.2202,-6.2238,-6.2214,-6.2393,-6.2361,-6.2304,-6.2205,-6.2384,-6.2454,-6.2483,-6.2101,-6.2098,-6.2095,-6.2093,0,0,-6.1799,-6.1858,-6.1892,-6.1924,-6.1976,-6.2048,-6.2155,-6.2232,-6.2282,-6.2333,-6.2422,-6.2537,-6.2484,-6.2525,-6.2504,-6.2581,-6.2756,-6.2513,-6.2513,-6.2557,-6.2954,-6.2997,-6.3031,-6.2725,-6.2731,-6.2735,-6.295,0,-6.2013,-6.2202,-6.2184,-6.2363,-6.2449,-6.2389,-6.2482,-6.2523,-6.253,-6.2602,-6.2607,-6.269,-6.2613,-6.2638,-6.2711,-6.272,-6.2835,-6.2704,-6.2806,-6.281,-6.2796,-6.3068,-6.3115,-6.3316,-6.2977,-6.2982,-6.2985,0,-6.2288,-6.2351,-6.2539,-6.2578,-6.2613,-6.2698,-6.2766,-6.2837,-6.2881,-6.288,-6.2926,-6.2892,-6.2999,-6.2898,-6.3043,-6.2954,-6.2994,-6.3005,-6.3012,-6.302,-6.2908,-6.3084,-6.338,-6.341,-6.3028,-6.3025,-6.3022,0,-6.2478,-6.2609,-6.2739,-6.2768,-6.2816,-6.2877,-6.29,-6.2939,-6.2986,-6.3045,-6.3075,-6.3146,-6.3184,-6.3239,-6.3224,-6.3152,-6.3372,-6.327,-6.3373,-6.3374,-6.3422,-6.3419,-6.3728,-6.3449,-6.3448,-6.3448,-6.3447,0,-6.2718,-6.2835,-6.2825,-6.2904,-6.3033,-6.301,-6.3138,-6.3152,-6.3187,-6.3267,-6.3219,-6.3294,-6.327,-6.3344,-6.3333,-6.3454,-6.3472,-6.3473,-6.3469,-6.3478,-6.3478,-6.3504,-6.3489,-6.3456,-6.3454,-6.3452,-6.3451,0,-6.2952,-6.295,-6.3087,-6.3122,-6.3133,-6.3226,-6.3255,-6.3329,-6.3331,-6.3433,-6.3455,-6.3458,-6.3543,-6.3534,-6.3627,-6.362,-6.377,-6.3749,-6.3756,-6.3751,-6.3854,-6.3845,-6.4191,-6.4235,-6.3927,-6.393,-6.3933,0,-6.3106,-6.3195,-6.3239,-6.329,-6.3318,-6.34,-6.3448,-6.3428,-6.348,-6.3537,-6.3604,-6.3685,-6.3748,-6.3885,-6.3894,-6.3966,-6.3946,-6.4062,-6.3956,-6.3962,-6.3947,-6.3942,-6.395,-6.4083,-6.4086,-6.4089,-6.4092,0,-6.3378,-6.3373,-6.3445,-6.3518,-6.3577,-6.3633,-6.3683,-6.3727,-6.3711,-6.3772,-6.3859,-6.3908,-6.4004,-6.4084,-6.4151,-6.4172,-6.413,-6.4125,-6.4152,-6.4162,-6.4163,-6.4163,-6.3813,-6.4117,-6.4115,-6.4113,-6.4111,-6.411,-6.3577,-6.3653,-6.3696,-6.3778,-6.3814,-6.3862,-6.3934,-6.3945,-6.4018,-6.4096,-6.4079,-6.4176,-6.4217,-6.4303,-6.4331,-6.4405,-6.4363,-6.4402,-6.4412,-6.4423,-6.4435,-6.4151,-6.4417,-6.4417,-6.4416,-6.4415,-6.4415,0,-6.3846,-6.3872,-6.3947,-6.402,-6.4084,-6.404,-6.4093,-6.4149,-6.4236,-6.4278,-6.4342,-6.4441,-6.4518,-6.4533,-6.4606,-6.4663,-6.4645,-6.4683,-6.4678,-6.4684,-6.4469,-6.4438,-6.4696,-6.4696,-6.4696,-6.4696,-6.4696,-6.4696,-6.3995,-6.4121,-6.4121,-6.4263,-6.4287,-6.4383,-6.4417,-6.4461,-6.4494,-6.4608,-6.4672,-6.4682,-6.4713,-6.4788,-6.4856,-6.4858,-6.4887,-6.4933,-6.4928,-6.4727,-6.4699,-6.4672,-6.4642,-6.494,-6.494,-6.5136,-6.5138,-6.5139]}]]